Hourly Weather Escaldes-Engordany

Today, 1 October, Thursday

Time Temperature Precipitation Wind Pressure Humidity
00:00 +9°C° 0 mm 1 mps 635 mmHg 67%
01:00 +9°C° 0 mm 1 mps 634 mmHg 67%
02:00 +9°C° 0 mm 1 mps 634 mmHg 66%
03:00 +9°C° 0 mm 1 mps 634 mmHg 66%
04:00 +9°C° 0 mm 1 mps 634 mmHg 65%
05:00 +9°C° 0 mm 1 mps 634 mmHg 64%
06:00 +8°C° 0 mm 1 mps 634 mmHg 64%
07:00 +11°C° 0 mm 1 mps 634 mmHg 60%
08:00 +13°C° 0 mm 1 mps 635 mmHg 56%
09:00 +15°C° 0 mm 1 mps 636 mmHg 52%
10:00 +16°C° 0 mm 2 mps 636 mmHg 52%
11:00 +16°C° 0 mm 2 mps 636 mmHg 51%
12:00 +17°C° 0 mm 2 mps 636 mmHg 50%
13:00 +16°C° 0 mm 2 mps 635 mmHg 53%
14:00 +16°C° 0 mm 2 mps 635 mmHg 57%
15:00 +14°C° 0 mm 3 mps 634 mmHg 60%
16:00 +14°C° 0 mm 2 mps 633 mmHg 67%
17:00 +12°C° 0 mm 2 mps 633 mmHg 74%
18:00 +10°C° 0 mm 1 mps 632 mmHg 81%
19:00 +10°C° 0 mm 1 mps 631 mmHg 84%
20:00 +8°C° 0 mm 2 mps 631 mmHg 87%
21:00 +8°C° 0 mm 2 mps 630 mmHg 90%
22:00 +8°C° 0 mm 2 mps 629 mmHg 90%
23:00 +8°C° 0 mm 3 mps 628 mmHg 90%

Tomorrow, 2 October, Friday

Time Temperature Precipitation Wind Pressure Humidity
00:00 +8°C° 0 mm 3 mps 627 mmHg 90%
01:00 +8°C° 0 mm 3 mps 627 mmHg 90%
02:00 +9°C° 0 mm 3 mps 626 mmHg 91%
03:00 +9°C° 0 mm 3 mps 625 mmHg 91%
04:00 +8°C° 0.5 mm 3 mps 624 mmHg 92%
05:00 +8°C° 0.5 mm 3 mps 623 mmHg 94%
06:00 +8°C° 0.5 mm 3 mps 622 mmHg 95%
07:00 +8°C° 1.8 mm 3 mps 622 mmHg 95%
08:00 +7°C° 1.8 mm 4 mps 621 mmHg 95%
09:00 +7°C° 1.8 mm 4 mps 620 mmHg 94%
10:00 +8°C° 2.9 mm 3 mps 620 mmHg 96%
11:00 +7°C° 2.9 mm 3 mps 620 mmHg 97%
12:00 +7°C° 2.9 mm 2 mps 620 mmHg 98%
13:00 +6°C° 4.5 mm 2 mps 620 mmHg 98%
14:00 +5°C° 4.5 mm 2 mps 620 mmHg 97%
15:00 +5°C° 4.5 mm 1 mps 620 mmHg 97%
16:00 +3°C° 1.6 mm 2 mps 620 mmHg 97%
17:00 +2°C° 1.6 mm 2 mps 620 mmHg 97%
18:00 +1°C° 1.6 mm 2 mps 620 mmHg 96%
19:00 +1°C° 0.6 mm 2 mps 621 mmHg 95%
20:00 +1°C° 0.6 mm 1 mps 621 mmHg 94%
21:00 +1°C° 0.6 mm 1 mps 622 mmHg 93%
22:00 +1°C° 0.1 mm 1 mps 621 mmHg 93%
23:00 -1°C° 0.1 mm 2 mps 621 mmHg 94%

Day after tomorrow, 3 October, Saturday

Time Temperature Precipitation Wind Pressure Humidity
00:00 -1°C° 0.1 mm 2 mps 621 mmHg 95%
01:00 -2°C° 0 mm 2 mps 622 mmHg 93%
02:00 -2°C° 0 mm 2 mps 622 mmHg 94%
03:00 -1°C° 0 mm 2 mps 622 mmHg 94%
04:00 -1°C° 0.1 mm 2 mps 622 mmHg 95%
05:00 -1°C° 0.1 mm 2 mps 622 mmHg 95%
06:00 -1°C° 0.1 mm 3 mps 622 mmHg 96%
07:00 0°C° 0.1 mm 3 mps 623 mmHg 95%
08:00 +1°C° 0.1 mm 3 mps 623 mmHg 95%
09:00 +1°C° 0.1 mm 3 mps 624 mmHg 95%
10:00 +2°C° 0.3 mm 3 mps 624 mmHg 94%
11:00 +2°C° 0.3 mm 3 mps 625 mmHg 94%
12:00 +3°C° 0.3 mm 3 mps 625 mmHg 93%
13:00 +3°C° 0.2 mm 3 mps 625 mmHg 93%
14:00 +4°C° 0.2 mm 2 mps 626 mmHg 92%
15:00 +5°C° 0.2 mm 2 mps 626 mmHg 92%
16:00 +5°C° 0 mm 1 mps 627 mmHg 94%
17:00 +5°C° 0 mm 1 mps 627 mmHg 95%
18:00 +4°C° 0 mm 1 mps 627 mmHg 97%
19:00 +4°C° 0 mm 1 mps 628 mmHg 96%
20:00 +4°C° 0 mm 1 mps 628 mmHg 96%
21:00 +3°C° 0 mm 1 mps 628 mmHg 96%
22:00 +3°C° 0 mm 1 mps 628 mmHg 96%
23:00 +3°C° 0 mm 1 mps 628 mmHg 96%

4 October, Sunday

Time Temperature Precipitation Wind Pressure Humidity
00:00 +3°C° 0 mm 1 mps 628 mmHg 96%
01:00 +1°C° 0 mm 2 mps 628 mmHg 96%
02:00 +1°C° 0 mm 2 mps 627 mmHg 95%
03:00 +1°C° 0 mm 2 mps 627 mmHg 95%
04:00 +1°C° 0 mm 2 mps 627 mmHg 95%
05:00 +1°C° 0 mm 2 mps 627 mmHg 95%
06:00 +1°C° 0 mm 2 mps 627 mmHg 95%
07:00 +2°C° 0 mm 2 mps 627 mmHg 93%
08:00 +3°C° 0 mm 2 mps 627 mmHg 90%
09:00 +5°C° 0 mm 2 mps 628 mmHg 88%
10:00 +5°C° 0.2 mm 2 mps 628 mmHg 89%
11:00 +5°C° 0.2 mm 2 mps 628 mmHg 91%
12:00 +6°C° 0.2 mm 1 mps 628 mmHg 92%
13:00 +5°C° 0.1 mm 2 mps 629 mmHg 89%
14:00 +5°C° 0.1 mm 2 mps 629 mmHg 86%
15:00 +6°C° 0.1 mm 2 mps 629 mmHg 82%
16:00 +4°C° 0 mm 2 mps 629 mmHg 84%
17:00 +3°C° 0 mm 2 mps 629 mmHg 86%
18:00 +2°C° 0 mm 1 mps 629 mmHg 88%
19:00 +2°C° 0.1 mm 1 mps 629 mmHg 88%
20:00 +2°C° 0.1 mm 1 mps 630 mmHg 87%
21:00 +2°C° 0.1 mm 1 mps 631 mmHg 86%
22:00 +3°C° 0.2 mm 1 mps 631 mmHg 86%
23:00 +3°C° 0.2 mm 1 mps 631 mmHg 86%

5 October, Monday

Time Temperature Precipitation Wind Pressure Humidity
00:00 +3°C° 0.2 mm 1 mps 631 mmHg 85%
01:00 +3°C° 0.4 mm 1 mps 630 mmHg 86%
02:00 +2°C° 0.4 mm 1 mps 630 mmHg 87%
03:00 +2°C° 0.4 mm 1 mps 630 mmHg 88%
04:00 +2°C° 0.3 mm 1 mps 630 mmHg 89%
05:00 +2°C° 0.3 mm 1 mps 630 mmHg 90%
06:00 +2°C° 0.3 mm 1 mps 630 mmHg 91%
07:00 +4°C° 0 mm 1 mps 631 mmHg 86%
08:00 +6°C° 0 mm 1 mps 632 mmHg 81%
09:00 +8°C° 0 mm 1 mps 633 mmHg 76%
10:00 +9°C° 0 mm 1 mps 633 mmHg 73%
11:00 +10°C° 0 mm 1 mps 633 mmHg 69%
12:00 +10°C° 0 mm 1 mps 634 mmHg 66%
13:00 +10°C° 0.1 mm 1 mps 634 mmHg 68%
14:00 +10°C° 0.1 mm 1 mps 633 mmHg 69%
15:00 +10°C° 0.1 mm 1 mps 633 mmHg 70%
16:00 +8°C° 0.2 mm 1 mps 633 mmHg 78%
17:00 +6°C° 0.2 mm 1 mps 633 mmHg 85%
18:00 +5°C° 0.2 mm 1 mps 632 mmHg 92%
19:00 +5°C° 0.2 mm 1 mps 633 mmHg 92%
20:00 +5°C° 0.2 mm 1 mps 633 mmHg 92%
21:00 +4°C° 0.2 mm 1 mps 633 mmHg 93%
22:00 +4°C° 0.1 mm 1 mps 633 mmHg 93%
23:00 +4°C° 0.1 mm 1 mps 633 mmHg 93%

6 October, Tuesday

Time Temperature Precipitation Wind Pressure Humidity
00:00 +4°C° 0.1 mm 1 mps 633 mmHg 93%
01:00 +4°C° 0 mm 1 mps 632 mmHg 91%
02:00 +4°C° 0 mm 1 mps 632 mmHg 90%
03:00 +3°C° 0 mm 1 mps 632 mmHg 88%
04:00 +4°C° 0 mm 1 mps 632 mmHg 87%
05:00 +4°C° 0 mm 1 mps 632 mmHg 85%
06:00 +4°C° 0 mm 1 mps 632 mmHg 84%
07:00 +6°C° 0 mm 1 mps 633 mmHg 79%
08:00 +8°C° 0 mm 1 mps 634 mmHg 75%
09:00 +9°C° 0 mm 0 mps 634 mmHg 70%
10:00 +10°C° 0 mm 1 mps 634 mmHg 70%
11:00 +11°C° 0 mm 1 mps 634 mmHg 70%
12:00 +10°C° 0 mm 2 mps 634 mmHg 70%
13:00 +10°C° 0 mm 2 mps 634 mmHg 71%
14:00 +12°C° 0 mm 2 mps 633 mmHg 73%
15:00 +12°C° 0 mm 2 mps 633 mmHg 75%
16:00 +10°C° 0.2 mm 2 mps 632 mmHg 82%
17:00 +9°C° 0.2 mm 2 mps 632 mmHg 89%
18:00 +7°C° 0.2 mm 2 mps 631 mmHg 96%
19:00 +8°C° 0.4 mm 1 mps 631 mmHg 97%
20:00 +8°C° 0.4 mm 1 mps 630 mmHg 97%
21:00 +7°C° 0.4 mm 0 mps 630 mmHg 98%
22:00 +8°C° 0.8 mm 1 mps 630 mmHg 98%
23:00 +8°C° 0.8 mm 1 mps 630 mmHg 98%
Show more

We Need Your Consent

Meteoprog and our Service Providers may store and access personal data such as cookies, device identifiers or other similar technologies on your device and process such data to personalise content and ads, as well as provide social media features and to analyse the traffic.

  • Store and/or access information on your device

    Cookies, device identifiers or other information can be stored or accessed on your device for the purposes indicated above.

  • Personalised ads and content, ad and content measurement, audience insights, and products development

    Ads and content can be personalised based on a profile. More data can be added to better personalise ads and content. Ad and content performance can be measured. Insights about the audience who saw the ads and content can be derived. Such data can be used to develop or improve user’s experience, systems and software.

By clicking ‘I Agree’ you will allow the use of indicated cookies, device identifiers, web beacons or other similar technologies. Your settings can be changed in the browser on your device.

For certain purposes, legitimate interests may be relied on, rather than consent. You can read more about this in our Privacy and Cookie Policy.